Fort Morgan, CO

6:54 PM MST on January 19, 2017 (GMT -0700)
Fort Morgan

Weather History for KFMM - May, 2013

Change the Weather History Date:

Wednesday, May 29, 2013

  Actual Average (KAKO) Record (KAKO)
Temperature  
Mean Temperature 60 °F -  
Max Temperature 68 °F 73 °F 96 °F (1989)
Min Temperature 49 °F 47 °F 29 °F (1947)
Degree Days  
Heating Degree Days 6    
Growing Degree Days 10 (Base 50)    
Moisture  
Dew Point 45 °F    
Average Humidity 62    
Maximum Humidity 93    
Minimum Humidity 36    
Precipitation  
Precipitation 0.00 in - - ()
Sea Level Pressure  
Sea Level Pressure 29.66 in    
Wind  
Wind Speed 17 mph (NNW)    
Max Wind Speed 28 mph    
Max Gust Speed 38 mph    
Visibility 10 miles    
Events Thunderstorm    
Averages and records for this station are not official NWS values.
T = Trace of Precipitation, MM = Missing Value Source: NWS Daily Summary

Daily Weather History Graph

Daily Weather History Graph

Search for Another Location

Airport or City:

Trip Planner

Search our weather history database for the weather conditions in past years. The results will help you decide how hot, cold, wet, or windy it might be!

Date:

Astronomy

May. 29, 2013 Rise Set
Actual Time 5:28 AM MDT 8:17 PM MDT
Civil Twilight 4:56 AM MDT 8:49 PM MDT
Nautical Twilight 4:16 AM MDT 9:29 PM MDT
Astronomical Twilight 3:29 AM MDT 10:16 PM MDT
Moon No Moon Rise 10:31 AM MDT (5/29)
Length of Visible Light 15h 52m
Length of Day
14h 48m
Waning Gibbous, 72% of the Moon is Illuminated
May 29
Waning Gibbous
May 31
Last Quarter
Jun 8
New
Jun 16
First Quarter
Jun 23
Full

Hourly Weather History & Observations

Time (MDT) Temp. Dew Point Humidity Pressure Visibility Wind Dir Wind Speed Gust Speed Precip Events Conditions
12:15 AM 57.2 °F 46.2 °F 67% 29.62 in 10.0 mi North 21.9 mph 27.6 mph N/A   Overcast
12:35 AM 57.7 °F 45.7 °F 64% 29.64 in 10.0 mi North 27.6 mph 32.2 mph N/A   Overcast
12:55 AM 59.4 °F 44.6 °F 58% 29.66 in 10.0 mi North 26.5 mph 34.5 mph N/A   Overcast
1:15 AM 60.1 °F 44.1 °F 55% 29.67 in 10.0 mi North 23.0 mph 38.0 mph N/A   Overcast
1:35 AM 57.7 °F 45.5 °F 64% 29.69 in 10.0 mi North 19.6 mph 31.1 mph N/A   Overcast
1:55 AM 56.7 °F 46.0 °F 68% 29.68 in 10.0 mi North 27.6 mph 34.5 mph N/A   Overcast
2:15 AM 56.3 °F 46.0 °F 68% 29.67 in 10.0 mi NNE 25.3 mph 35.7 mph N/A   Overcast
2:35 AM 56.5 °F 45.3 °F 66% 29.66 in 10.0 mi NNE 23.0 mph 32.2 mph N/A   Overcast
2:55 AM 55.8 °F 45.1 °F 67% 29.65 in 10.0 mi NNE 24.2 mph 27.6 mph N/A   Overcast
3:15 AM 55.6 °F 45.9 °F 70% 29.65 in 10.0 mi NE 19.6 mph 28.8 mph N/A   Overcast
3:35 AM 56.3 °F 45.5 °F 67% 29.66 in 10.0 mi ENE 20.7 mph 25.3 mph N/A   Overcast
3:55 AM 56.3 °F 45.3 °F 67% 29.66 in 10.0 mi NE 18.4 mph 27.6 mph N/A   Overcast
4:15 AM 55.2 °F 46.4 °F 72% 29.65 in 10.0 mi ENE 16.1 mph 25.3 mph N/A   Mostly Cloudy
4:35 AM 54.1 °F 46.9 °F 77% 29.67 in 10.0 mi ENE 15.0 mph - N/A   Mostly Cloudy
4:55 AM 54.1 °F 47.5 °F 78% 29.68 in 10.0 mi ENE 13.8 mph 18.4 mph N/A   Overcast
5:15 AM 54.1 °F 47.5 °F 78% 29.67 in 10.0 mi ENE 12.7 mph - N/A   Overcast
5:35 AM 54.3 °F 47.5 °F 78% 29.67 in 10.0 mi ENE 12.7 mph - N/A Thunderstorm Overcast
5:55 AM 53.4 °F 48.6 °F 84% 29.68 in 10.0 mi NE 6.9 mph - N/A   Overcast
6:15 AM 53.4 °F 49.5 °F 86% 29.70 in 10.0 mi West 11.5 mph - N/A   Overcast
6:35 AM 52.7 °F 49.1 °F 88% 29.71 in 10.0 mi West 8.1 mph - N/A   Overcast
6:55 AM 52.2 °F 49.3 °F 90% 29.72 in 7.0 mi West 11.5 mph - N/A Thunderstorm Overcast
7:15 AM 52.0 °F 50.0 °F 93% 29.72 in 7.0 mi WNW 4.6 mph - N/A Thunderstorm Thunderstorm
7:35 AM 52.0 °F 49.6 °F 92% 29.70 in 4.0 mi NNW 3.5 mph - N/A Thunderstorm Overcast
7:55 AM 52.2 °F 48.2 °F 86% 29.68 in 4.0 mi NNE 11.5 mph - N/A   Overcast
8:15 AM 52.9 °F 50.2 °F 91% 29.67 in 10.0 mi NNE 11.5 mph - N/A   Overcast
8:35 AM 54.9 °F 49.8 °F 83% 29.65 in 10.0 mi NNE 12.7 mph - N/A   Mostly Cloudy
8:55 AM 58.3 °F 50.2 °F 74% 29.64 in 10.0 mi NE 17.3 mph - N/A   Scattered Clouds
9:15 AM 61.0 °F 49.1 °F 65% 29.64 in 10.0 mi ENE 12.7 mph - N/A   Clear
9:35 AM 64.2 °F 47.1 °F 54% 29.63 in 10.0 mi ENE 11.5 mph - N/A   Scattered Clouds
9:55 AM 63.5 °F 46.8 °F 54% 29.64 in 10.0 mi East 5.8 mph - N/A   Mostly Cloudy
10:15 AM 63.0 °F 46.0 °F 54% 29.66 in 10.0 mi Calm Calm - N/A   Overcast
10:35 AM 61.2 °F 48.7 °F 64% 29.66 in 10.0 mi WNW 15.0 mph 19.6 mph N/A   Overcast
10:55 AM 61.7 °F 47.8 °F 60% 29.67 in 10.0 mi WNW 15.0 mph 19.6 mph N/A   Overcast
11:15 AM 57.6 °F 45.1 °F 63% 29.68 in 10.0 mi WNW 21.9 mph 28.8 mph N/A   Overcast
11:35 AM 57.4 °F 44.4 °F 62% 29.68 in 10.0 mi NW 26.5 mph 34.5 mph N/A   Overcast
11:55 AM 59.7 °F 44.2 °F 57% 29.69 in 10.0 mi WNW 24.2 mph 33.4 mph N/A   Mostly Cloudy
12:15 PM 60.4 °F 45.0 °F 57% 29.68 in 10.0 mi WNW 27.6 mph 34.5 mph N/A   Mostly Cloudy
12:35 PM 60.3 °F 44.6 °F 56% 29.68 in 10.0 mi WNW 25.3 mph 33.4 mph N/A   Mostly Cloudy
12:55 PM 59.9 °F 43.9 °F 55% 29.67 in 10.0 mi WNW 25.3 mph 31.1 mph N/A   Mostly Cloudy
1:15 PM 61.3 °F 44.1 °F 53% 29.66 in 10.0 mi NW 21.9 mph 29.9 mph N/A   Mostly Cloudy
1:35 PM 63.3 °F 43.0 °F 47% 29.66 in 10.0 mi NW 19.6 mph 28.8 mph N/A   Mostly Cloudy
1:55 PM 64.6 °F 43.7 °F 47% 29.65 in 10.0 mi NW 17.3 mph 23.0 mph N/A   Mostly Cloudy
2:15 PM 64.8 °F 43.3 °F 46% 29.63 in 10.0 mi NW 16.1 mph 19.6 mph N/A   Mostly Cloudy
2:35 PM 65.8 °F 42.1 °F 42% 29.64 in 10.0 mi WNW 19.6 mph 24.2 mph N/A   Scattered Clouds
2:55 PM 65.3 °F 42.1 °F 43% 29.64 in 10.0 mi West 15.0 mph 23.0 mph N/A   Scattered Clouds
3:15 PM 65.7 °F 42.1 °F 42% 29.63 in 10.0 mi West 17.3 mph 23.0 mph N/A   Scattered Clouds
3:35 PM 64.4 °F 42.1 °F 44% 29.63 in 10.0 mi West 13.8 mph 17.3 mph N/A   Scattered Clouds
3:55 PM 65.1 °F 42.1 °F 43% 29.62 in 10.0 mi WNW 10.4 mph - N/A   Mostly Cloudy
4:15 PM 67.6 °F 39.9 °F 36% 29.62 in 10.0 mi WNW 13.8 mph 18.4 mph N/A   Scattered Clouds
4:35 PM 68.2 °F 39.9 °F 36% 29.61 in 10.0 mi WNW 11.5 mph 20.7 mph N/A Thunderstorm Clear
4:55 PM 68.2 °F 42.4 °F 39% 29.60 in 10.0 mi NNW 21.9 mph 26.5 mph N/A   Scattered Clouds
5:15 PM 66.4 °F 42.8 °F 42% 29.61 in 10.0 mi NNW 19.6 mph 27.6 mph N/A   Clear
5:35 PM 66.4 °F 41.0 °F 40% 29.62 in 10.0 mi NNW 16.1 mph 24.2 mph N/A   Clear
5:55 PM 66.0 °F 40.1 °F 39% 29.62 in 10.0 mi NNW 13.8 mph - N/A   Clear
6:15 PM 65.7 °F 39.0 °F 38% 29.62 in 10.0 mi NNW 12.7 mph - N/A   Clear
6:35 PM 65.1 °F 40.5 °F 40% 29.62 in 10.0 mi North 13.8 mph 19.6 mph N/A   Clear
6:55 PM 64.4 °F 39.7 °F 40% 29.62 in 10.0 mi NNW 12.7 mph - N/A   Clear
7:15 PM 63.9 °F 39.4 °F 41% 29.61 in 10.0 mi NNW 12.7 mph - N/A   Clear
7:35 PM 62.1 °F 40.8 °F 46% 29.61 in 10.0 mi NW 9.2 mph - N/A   Clear
7:55 PM 60.6 °F 42.8 °F 52% 29.61 in 10.0 mi West 6.9 mph - N/A   Clear
8:15 PM 57.4 °F 43.9 °F 61% 29.61 in 10.0 mi WNW 5.8 mph - N/A   Clear
8:35 PM 55.0 °F 43.7 °F 66% 29.61 in 10.0 mi WNW 6.9 mph - N/A   Clear
8:55 PM 54.0 °F 44.2 °F 70% 29.61 in 10.0 mi West 6.9 mph - N/A   Clear
9:15 PM 52.2 °F 44.6 °F 75% 29.65 in 10.0 mi WNW 6.9 mph - N/A   Clear
9:35 PM 52.7 °F 43.9 °F 72% 29.67 in 10.0 mi WNW 6.9 mph - N/A   Clear
9:55 PM 52.0 °F 44.8 °F 76% 29.69 in 10.0 mi WNW 9.2 mph - N/A   Clear
10:15 PM 52.0 °F 45.1 °F 77% 29.70 in 10.0 mi WNW 8.1 mph - N/A   Clear
10:35 PM 52.9 °F 44.8 °F 74% 29.71 in 10.0 mi NW 13.8 mph 17.3 mph N/A   Clear
10:55 PM 52.2 °F 42.4 °F 69% 29.72 in 10.0 mi NNW 5.8 mph - N/A   Clear
11:15 PM 52.0 °F 41.9 °F 69% 29.71 in 10.0 mi North 10.4 mph - N/A   Clear
11:35 PM 51.1 °F 41.4 °F 69% 29.71 in 10.0 mi North 10.4 mph - N/A   Clear
11:55 PM 49.8 °F 41.0 °F 72% 29.70 in 10.0 mi North 10.4 mph - N/A   Clear